Weather Service Report


519 
ASUS42 KRAH 211210
RWRRAH
NORTH CAROLINA WEATHER ROUNDUP
NATIONAL WEATHER SERVICE RALEIGH NC
800 AM EDT SUN SEP 21 2014

NOTE: "FAIR" INDICATES FEW OR NO CLOUDS BELOW 12,000 FEET WITH NO
SIGNIFICANT WEATHER AND/OR OBSTRUCTIONS TO VISIBILITY.

NCZ001-053-055-056-065-067-211300-
WESTERN NORTH CAROLINA
  
CITY           SKY/WX    TMP DP  RH WIND       PRES   REMARKS
ASHEVILLE      NOT AVBL                                               
JEFFERSON      NOT AVBL                                               
HICKORY        NOT AVBL                                               
RUTHERFORDTON  CLEAR     55  55  99 NW3       30.01R FOG              
MOUNT AIRY     NOT AVBL                                               
BOONE          CLEAR     55  54  96 W9        30.06S                  
$$
 
NCZ021-022-025-041-071-084-088-211300-
CENTRAL NORTH CAROLINA
  
CITY           SKY/WX    TMP DP  RH WIND       PRES   REMARKS
CHARLOTTE      NOT AVBL                                               
GREENSBORO     MOCLDY    60  57  89 CALM      29.94S                  
WINSTON-SALEM  CLEAR     61  55  81 CALM      29.96R                  
RALEIGH-DURHAM MOSUNNY   63  60  90 CALM      29.91S                  
FORT BRAGG     PTSUNNY   65  63  91 NW8       29.90R                  
FAYETTEVILLE   PTSUNNY   67  63  87 NW9       29.89R                  
BURLINGTON     MOSUNNY   61  57  87 CALM      29.92F                  
LAURINBURG     MOSUNNY   64  61  90 NW5       29.92R                  
$$
 
NCZ011-015-027-028-043-044-047-080-103-211300-
NORTHEASTERN NORTH CAROLINA
  
CITY           SKY/WX    TMP DP  RH WIND       PRES   REMARKS
ROCKY MT-WILSO CLOUDY    67  63  87 N10       29.87R                  
GREENVILLE     LGT RAIN  68  68 100 N7        29.87R                  
WASHINGTON     CLOUDY    68  67  96 NW7       29.82R                  
ELIZABETH CITY LGT RAIN  70  69  97 N13       29.79S                  
MANTEO         CLOUDY    71  70  96 N12       29.76S                  
CAPE HATTERAS  LGT RAIN  70  70 100 N9G17     29.71F                  
$$
 
NCZ078-087-090-091-093-098-101-211300-
SOUTHEASTERN NORTH CAROLINA
  
CITY           SKY/WX    TMP DP  RH WIND       PRES   REMARKS
LUMBERTON      MOSUNNY   65  62  90 NW8       29.90R                  
GOLDSBORO      PTSUNNY   69  68  98 N3        29.85R                  
KINSTON        CLOUDY    68  68 100 NW8       29.86R FOG              
KENANSVILLE    CLOUDY    68  66  94 NW7       29.87R                  
NEW BERN       CLOUDY    72  68  87 N8G18     29.81R                  
CHERRY POINT   CLOUDY    71  69  93 N16       29.80R                  
BEAUFORT       LGT RAIN  73  70  90 N13G28    29.76R FOG              
JACKSONVILLE   CLOUDY    70  68  93 NW14      29.81R                  
WILMINGTON     CLOUDY    70  68  93 NW12      29.83R                  
$$



559 
ASUS42 KRAH 211210
RWRRAH
NORTH CAROLINA WEATHER ROUNDUP
NATIONAL WEATHER SERVICE RALEIGH NC
800 AM EDT SUN SEP 21 2014

NOTE: "FAIR" INDICATES FEW OR NO CLOUDS BELOW 12,000 FEET WITH NO
SIGNIFICANT WEATHER AND/OR OBSTRUCTIONS TO VISIBILITY.

NCZ001-053-055-056-065-067-211300-
WESTERN NORTH CAROLINA
  
CITY           SKY/WX    TMP DP  RH WIND       PRES   REMARKS
ASHEVILLE      FOG       55  54  96 CALM      30.06S VSB 1/4          
JEFFERSON      PTCLDY    59  55  85 W15       30.04F                  
HICKORY        CLEAR     58  57  97 W3        29.98S FOG              
RUTHERFORDTON  NOT AVBL                                               
MOUNT AIRY     CLEAR     57  55  92 CALM      29.99S FOG              
$$
 
NCZ021-022-025-041-071-084-088-211300-
CENTRAL NORTH CAROLINA
  
CITY           SKY/WX    TMP DP  RH WIND       PRES   REMARKS
CHARLOTTE      PTCLDY    60  57  89 NW5       29.98R                  
GREENSBORO     MOCLDY    60  57  89 CALM      29.94S                  
WINSTON-SALEM  CLEAR     61  55  81 CALM      29.96R                  
RALEIGH-DURHAM MOSUNNY   63  60  90 CALM      29.91S                  
FORT BRAGG     PTSUNNY   65  63  91 NW8       29.90R                  
FAYETTEVILLE   PTSUNNY   67  63  87 NW9       29.89R                  
$$
 
NCZ011-015-027-028-043-044-047-080-103-211300-
NORTHEASTERN NORTH CAROLINA
  
CITY           SKY/WX    TMP DP  RH WIND       PRES   REMARKS
ROANOKE RAPIDS CLOUDY    64  63  94 N6        29.87R                  
ROCKY MT-WILSO CLOUDY    67  63  87 N10       29.87R                  
GREENVILLE     LGT RAIN  68  68 100 N7        29.87R                  
WASHINGTON     CLOUDY    68  67  96 NW7       29.82R                  
ELIZABETH CITY NOT AVBL                                               
MANTEO         CLOUDY    71  70  96 N12       29.76S                  
CAPE HATTERAS  LGT RAIN  70  70 100 N9G17     29.71F                  
$$
 
NCZ078-087-090-091-093-098-101-211300-
SOUTHEASTERN NORTH CAROLINA
  
CITY           SKY/WX    TMP DP  RH WIND       PRES   REMARKS
LUMBERTON      MOSUNNY   65  62  90 NW8       29.90R                  
GOLDSBORO      PTSUNNY   69  68  98 N3        29.85R                  
KINSTON        CLOUDY    68  68 100 NW8       29.86R FOG              
KENANSVILLE    CLOUDY    68  66  94 NW7       29.87R                  
NEW BERN       CLOUDY    72  68  87 N8G18     29.81R                  
CHERRY POINT   CLOUDY    71  69  93 N16       29.80R                  
BEAUFORT       LGT RAIN  73  70  90 N13G28    29.76R FOG              
JACKSONVILLE   CLOUDY    70  68  93 NW14      29.81R                  
WILMINGTON     CLOUDY    70  68  93 NW12      29.83R                  
$$


Return to Home page


Western Regional Climate Center, wrcc@dri.edu